Home > Time Zones > World Clock > Weather > Italy > Milan > Past weeks

Flag for Italy Weather past 2 weeks in Milan, Italy

Now
45 °F

Drizzle. Fog.


Feels Like: 42 °F
Forecast: 40 / 55 °F
Wind: 5 mph from Northeast

Location: Milan / Linate

Current Time: Mar 2, 2015 at 9:21:56 AM

Latest Report: Mar 2, 2015 at 8:50 AM


Visibility: 1 mi

Pressure: 29.86 "Hg

Humidity: 100%

Dew point: 45 °F

Location of MilanLocation

Historic Weather in Milan — Graph

°F

Milan temperature yesterday

Maximum temperature yesterday: 57 °F (at 1:50 PM)
Minimum temperature yesterday: 36 °F (at 2:50 AM)
Average temperature yesterday: 47 °F

Past Weeks' High & Low Weather Summary

 TemperatureHumidityPressure
High57 °F (Mar 1, 1:50 PM)100% (Feb 15, 7:20 AM)30.63 "Hg (Feb 15, 7:20 AM)
Low30 °F (Feb 20, 6:20 AM)30% (Feb 25, 3:50 AM)29.53 "Hg (Feb 22, 2:20 AM)
Average44 °F81%30.01 "Hg
* Reported Feb 15 7:20 AM — Mar 2 7:50 AM, Milan, Weather by CustomWeather, © 2015

Note: Actual official high and low records may vary slightly from our data, if they occured in-between our weather recording intervals... More about our weather records

Advertising

Milan weather history for previous 24 hours

 ConditionsComfort  
Time TempWeatherWind HumidityBarometerVisibility
7:50 AM
Mon, Mar 2
45 °FDrizzle. Fog.2 mph100%29.86 "Hg2 mi
7:20 AM46 °FDrizzle. Fog.3 mph93%29.89 "Hg2 mi
6:50 AM46 °FPassing clouds.2 mph100%29.89 "Hg5 mi
6:20 AM46 °FPassing clouds.2 mph100%29.89 "HgN/A
5:50 AM46 °FPassing clouds.3 mph100%29.89 "HgN/A
5:20 AM46 °FPassing clouds.5 mph100%29.92 "HgN/A
4:50 AM48 °FPassing clouds.2 mph94%29.92 "HgN/A
4:20 AM46 °FPassing clouds.3 mph100%29.92 "HgN/A
3:50 AM46 °FPassing clouds.5 mph100%29.92 "HgN/A
3:20 AM46 °FPassing clouds.3 mph100%29.92 "HgN/A
2:50 AM46 °FLight rain. Passing clouds.6 mph100%29.92 "HgN/A
2:20 AM46 °FLight rain. Passing clouds.6 mph100%29.95 "HgN/A
1:50 AM48 °FLight rain. Passing clouds.5 mph87%29.95 "HgN/A
1:20 AM48 °FLight rain. Passing clouds.2 mph87%29.95 "HgN/A
12:50 AM48 °FPartly cloudy.5 mph87%29.95 "HgN/A
12:20 AM50 °FPartly cloudy.3 mph76%29.95 "HgN/A
11:50 PM
Sun, Mar 1
48 °FPassing clouds.6 mph82%29.98 "HgN/A
11:20 PM52 °FPassing clouds.3 mph72%29.98 "HgN/A
10:50 PM52 °FPassing clouds.3 mph72%29.98 "HgN/A
10:20 PM52 °FPassing clouds.3 mph72%29.98 "HgN/A
9:50 PM52 °FPassing clouds.3 mph72%29.98 "HgN/A
9:20 PM52 °FPassing clouds.6 mph67%29.98 "HgN/A
8:50 PM52 °FPassing clouds.6 mph67%29.98 "HgN/A
8:20 PM52 °FClear.7 mph67%29.98 "Hg10 mi
7:50 PM52 °FClear.6 mph67%29.98 "Hg10 mi
7:20 PM52 °FClear.5 mph67%29.98 "Hg10 mi
6:50 PM52 °FPassing clouds.5 mph72%29.98 "HgN/A
6:20 PM54 °FPassing clouds.5 mph67%29.98 "HgN/A
5:50 PM54 °FPassing clouds.7 mph63%29.95 "HgN/A
5:20 PM55 °FPassing clouds.7 mph55%29.98 "HgN/A
4:50 PM57 °FPassing clouds.7 mph51%29.95 "HgN/A
4:20 PM57 °FPassing clouds.8 mph48%29.95 "HgN/A
3:50 PM57 °FPassing clouds.10 mph48%29.98 "HgN/A
3:20 PM57 °FPassing clouds.9 mph51%29.98 "HgN/A
2:50 PM57 °FPassing clouds.9 mph51%29.98 "HgN/A
2:20 PM57 °FPassing clouds.7 mph48%29.98 "HgN/A
1:50 PM57 °FPassing clouds.6 mph44%30.01 "HgN/A
1:20 PM55 °FPassing clouds.7 mph47%30.01 "HgN/A
12:50 PM55 °FPartly sunny.7 mph55%30.04 "HgN/A
12:20 PM55 °FPassing clouds.5 mph47%30.04 "HgN/A
11:50 AM54 °FClear.3 mph54%30.04 "Hg5 mi
11:20 AM52 °FClear.1 mph72%30.07 "Hg4 mi
10:50 AM46 °FFog.2 mph82%30.07 "Hg3 mi
10:20 AM45 °FFog.No wind87%30.07 "Hg2 mi
9:50 AM43 °FFog.2 mph93%30.07 "Hg2 mi
9:20 AM41 °FFog.No wind100%30.07 "Hg2 mi
Weather by CustomWeather, © 2015

See weather overviewHow to use our weather pages